[[{"header":{"parameterUnit":"m.s-1","parameterCategory":1,"la1":30.2991,"la2":30.254,"lo1":-89.0895,"lo2":-89.0444,"dy":0.0017,"dx":0.0017,"nx":28,"ny":28,"refTime":"2024-05-19T09:00:00:Z","depth":0,"parameterNumber":2,"parameterNumberName":"U-component_of_WINDS"},"data":[0,0,0,0,0,0,0,0,0,0,0,0,0,0,0,0,0,0,0,0,0,0,0,0,0,0,0,0,0,0,0,0,0,0,0,0,0,0,0,0,0,0,0,0,0,0,0,0,0,0,0,0,0,0,0,0,0,0,0.4721,0.4722,0,0.4875,0.4876,0.4878,0.4923,0.4922,0.4921,0.492,0.5081,0.5086,0.5091,0,0,0,0,0,0,0,0,0,0,0,0,0,0.4468,0.4472,0.4721,0.4723,0.4724,0.4874,0.4876,0.4879,0.4923,0.4922,0.4921,0.492,0.508,0.5085,0.5092,0,0,0,0,0,0,0,0,0,0,0,0,0,0.4595,0.4474,0.472,0.4765,0.477,0.4874,0.4876,0.4879,0.4923,0.4922,0.4921,0.4919,0.5078,0.5085,0.5092,0.5164,0,0,0.5116,0.5119,0,0,0,0,0,0,0,0,0.4588,0.4605,0.4756,0.4762,0.4768,0.4878,0.4846,0.4975,0.4923,0.4865,0.492,0.4919,0.5015,0.5028,0.5059,0.5172,0.5179,0.5116,0.5121,0.5124,0.5126,0,0,0,0,0,0,0,0.4579,0.4598,0.4782,0.4758,0.4766,0.4778,0.4794,0.4871,0.4945,0.487,0.4874,0.4891,0.5018,0.5052,0.5063,0.5181,0.5116,0.5123,0.5127,0.513,0.536,0.5362,0,0,0,0,0,0,0.4562,0.4591,0.4777,0.4786,0.4673,0.4783,0.4802,0.4844,0.4944,0.4958,0.4892,0.4893,0.5039,0.5054,0.5069,0.516,0.5124,0.5131,0.5136,0.5359,0.5361,0.5362,0,0,0,0,0,0,0.4557,0.4579,0.4771,0.4689,0.4715,0.4789,0.4836,0.4848,0.4882,0.4961,0.4975,0.4913,0.5039,0.5058,0.514,0.5166,0.5135,0.5142,0.5357,0.5359,0.5362,0.5342,0,0,0,0,0,0,0.4549,0.4576,0.4604,0.469,0.4719,0.4838,0.4838,0.4852,0.4894,0.4897,0.4984,0.4998,0.504,0.5128,0.5148,0.5176,0.5147,0.5355,0.5358,0.5361,0.534,0.5343,0.5345,0,0,0,0,0,0.454,0.4593,0.4605,0.4627,0.4755,0.4839,0.4856,0.4903,0.4896,0.4925,0.4976,0.4995,0.516,0.5136,0.5158,0.5189,0.5354,0.5357,0.5361,0.5339,0.5343,0.5345,0,0,0,0,0,0,0.4509,0.4605,0.4619,0.4701,0.4762,0.4847,0.4884,0.4905,0.4969,0.4969,0.5024,0.5044,0.5121,0.5164,0.5136,0.5264,0.5257,0.5265,0.5234,0.5238,0.524,0.5228,0.5154,0,0,0,0,0,0.4512,0.4572,0.4652,0.4717,0.4746,0.481,0.4849,0.4879,0.4944,0.497,0.5027,0.5091,0.5157,0.52,0.5265,0.5347,0.5367,0.5379,0.5381,0.5383,0.5389,0.5436,0.5442,0.5374,0.5374,0.5374,0,0,0.4518,0.4578,0.4612,0.4712,0.4763,0.4824,0.4831,0.4896,0.4943,0.4981,0.5061,0.5104,0.5179,0.5261,0.53,0.5299,0.5412,0.5387,0.5388,0.5394,0.544,0.5446,0.5452,0.5376,0.5376,0.5375,0,0,0.4561,0.4612,0.4671,0.4721,0.4797,0.4838,0.4852,0.4935,0.4965,0.5046,0.5075,0.5132,0.5245,0.5297,0.5338,0.5399,0.5419,0.5419,0.5432,0.5477,0.5482,0.5487,0.5509,0.5516,0.5425,0.5425,0.5425,0,0.4559,0.4652,0.4699,0.4762,0.4806,0.4841,0.4902,0.4949,0.5042,0.5072,0.5069,0.5211,0.5263,0.5358,0.5372,0.5404,0.5423,0.541,0.5477,0.5483,0.5488,0.551,0.5518,0.5424,0.5425,0.5425,0.5425,0,0.4647,0.4711,0.475,0.4838,0.4885,0.4947,0.5004,0.5047,0.5072,0.5115,0.5197,0.5261,0.534,0.5364,0.5391,0.5463,0.5459,0.5466,0.5461,0.5493,0.5515,0.5523,0.5424,0.5424,0.5424,0.5424,0,0,0.4675,0.4788,0.4801,0.4841,0.4927,0.4978,0.5041,0.5117,0.5153,0.5216,0.5271,0.5365,0.5372,0.5418,0.5451,0.549,0.5534,0.5492,0.5495,0.5498,0.5617,0.5612,0.562,0.5548,0.5549,0.5551,0.5611,0,0.4729,0.4843,0.4886,0.4979,0.5039,0.5074,0.5129,0.5188,0.5229,0.5286,0.5332,0.5398,0.5401,0.543,0.547,0.552,0.5559,0.5517,0.56,0.5602,0.558,0.5632,0.5626,0.568,0.562,0.5621,0.5622,0,0.4808,0.487,0.4968,0.5046,0.5073,0.5122,0.5195,0.5249,0.5317,0.5344,0.5395,0.5425,0.5493,0.5483,0.5578,0.5548,0.5585,0.5615,0.5618,0.5628,0.5614,0.5643,0.5698,0.5706,0.5636,0.5635,0.5634,0,0.4818,0.4927,0.5,0.5034,0.5127,0.516,0.52,0.5267,0.5309,0.5373,0.5402,0.5473,0.5512,0.5567,0.5616,0.5603,0.5706,0.57,0.5731,0.573,0.5752,0.575,0.5814,0.5775,0.5775,0.5775,0.5775,0,0.4874,0.4933,0.5006,0.5051,0.5118,0.5168,0.5234,0.5277,0.5335,0.5389,0.5424,0.5474,0.5535,0.5594,0.5632,0.5705,0.5723,0.5747,0.5757,0.5744,0.5741,0.5769,0.5767,0.5777,0.5776,0.5776,0.5776,0,0.4898,0.4949,0.5031,0.5112,0.5133,0.5179,0.5249,0.5294,0.5336,0.5404,0.5423,0.549,0.556,0.5614,0.5706,0.5732,0.5809,0.582,0.5786,0.5791,0.582,0.5816,0.5904,0.5918,0.5869,0.587,0.587,0,0.493,0.4976,0.5061,0.51,0.5139,0.5201,0.5244,0.5295,0.5339,0.5419,0.5454,0.5527,0.5588,0.5699,0.5756,0.5827,0.5839,0.5865,0.585,0.5836,0.5839,0.5836,0.5841,0.5867,0.5867,0.5867,0.5867,0,0.4982,0.5005,0.5066,0.5135,0.5185,0.5243,0.5301,0.5331,0.5392,0.544,0.5511,0.5558,0.5651,0.5723,0.5799,0.5842,0.5865,0.5872,0.5883,0.587,0.5849,0.5861,0.5792,0.587,0.5869,0.5869,0.5869,0.5869,0.5012,0.5054,0.512,0.5186,0.5235,0.5288,0.5335,0.5382,0.5442,0.5521,0.5548,0.5622,0.5688,0.5793,0.5836,0.5895,0.5896,0.5912,0.5916,0.5919,0.5918,0.5839,0.5909,0.5909,0.5909,0.5909,0.5909,0,0.5065,0.5109,0.5169,0.5249,0.5301,0.5317,0.5382,0.5425,0.5489,0.5549,0.5608,0.569,0.576,0.5822,0.5894,0.593,0.5942,0.5947,0.5945,0.5954,0.5913,0.5896,0.5936,0.5936,0.5936,0.5936,0.5936,0.5936,0.5099,0.5171,0.5202,0.5299,0.5343,0.5415,0.5451,0.55,0.5548,0.5638,0.5695,0.5735,0.5796,0.5873,0.5937,0.5954,0.5979,0.5981,0.6,0.5961,0.5957,0.5954,0.5939,0.5986,0.5986,0.6037,0.6037,0.6038]},{"header":{"parameterUnit":"m.s-1","parameterCategory":1,"la1":30.2991,"la2":30.254,"lo1":-89.0895,"lo2":-89.0444,"dy":0.0017,"dx":0.0017,"nx":28,"ny":28,"refTime":"2024-05-19T09:00:00:Z","depth":0,"parameterNumber":3,"parameterNumberName":"V-component_of_WINDS"},"data":[0,0,0,0,0,0,0,0,0,0,0,0,0,0,0,0,0,0,0,0,0,0,0,0,0,0,0,0,0,0,0,0,0,0,0,0,0,0,0,0,0,0,0,0,0,0,0,0,0,0,0,0,0,0,0,0,0,0,1.3303,1.3302,0,1.3268,1.3267,1.3267,1.3197,1.3196,1.3194,1.3193,1.3156,1.3157,1.3157,0,0,0,0,0,0,0,0,0,0,0,0,0,1.3306,1.3307,1.3303,1.3302,1.3302,1.3268,1.3267,1.3267,1.3197,1.3196,1.3194,1.3192,1.3156,1.3157,1.3157,0,0,0,0,0,0,0,0,0,0,0,0,0,1.3292,1.3307,1.3303,1.3263,1.3259,1.3268,1.3267,1.3267,1.3198,1.3195,1.3193,1.3191,1.3156,1.3157,1.3157,1.3202,0,0,1.3159,1.3159,0,0,0,0,0,0,0,0,1.3292,1.3291,1.3269,1.3266,1.3261,1.3235,1.3255,1.3245,1.3198,1.3221,1.3193,1.319,1.3184,1.3182,1.318,1.32,1.3198,1.3159,1.3159,1.3159,1.3159,0,0,0,0,0,0,0,1.3294,1.3293,1.3289,1.3269,1.3264,1.3246,1.3242,1.3253,1.3214,1.3219,1.3214,1.321,1.3181,1.318,1.3179,1.3198,1.3159,1.3159,1.3159,1.3159,1.3247,1.3249,0,0,0,0,0,0,1.3301,1.3294,1.329,1.3288,1.3272,1.3248,1.3243,1.3245,1.3214,1.3207,1.3212,1.3207,1.318,1.3178,1.3177,1.3223,1.3159,1.3159,1.316,1.3245,1.3248,1.325,0,0,0,0,0,0,1.3301,1.3301,1.3291,1.3289,1.3287,1.325,1.3253,1.3246,1.3244,1.3209,1.3202,1.3218,1.3178,1.3176,1.3195,1.3221,1.316,1.316,1.3243,1.3246,1.3249,1.3318,0,0,0,0,0,0,1.3301,1.3302,1.3319,1.329,1.3287,1.3311,1.3255,1.3246,1.3245,1.3238,1.3212,1.3206,1.3176,1.3195,1.3195,1.3221,1.3161,1.324,1.3244,1.3248,1.3313,1.3323,1.3332,0,0,0,0,0,1.3302,1.334,1.332,1.332,1.3308,1.3312,1.331,1.3276,1.3247,1.3263,1.3241,1.3207,1.3219,1.3197,1.3197,1.3223,1.3238,1.3243,1.3248,1.3309,1.3321,1.3332,0,0,0,0,0,0,1.3373,1.3336,1.3313,1.3344,1.3332,1.3301,1.332,1.329,1.3286,1.328,1.3237,1.3232,1.3255,1.3241,1.3218,1.3262,1.3223,1.3228,1.327,1.3281,1.329,1.3291,1.3161,0,0,0,0,0,1.3393,1.34,1.3367,1.3397,1.3392,1.3357,1.3358,1.3332,1.3318,1.3312,1.3291,1.3278,1.3278,1.328,1.3278,1.3312,1.3303,1.333,1.3339,1.3347,1.335,1.3363,1.3373,1.3265,1.3265,1.3265,0,0,1.3433,1.3413,1.342,1.3411,1.3398,1.3405,1.3354,1.3364,1.3368,1.3314,1.3329,1.3313,1.3296,1.3321,1.3331,1.331,1.3379,1.3353,1.3359,1.3358,1.3369,1.3379,1.3388,1.3268,1.3268,1.3267,0,0,1.3508,1.3496,1.3517,1.3505,1.3487,1.3463,1.3469,1.3442,1.3429,1.3443,1.3402,1.3406,1.3409,1.3396,1.3391,1.346,1.3427,1.3461,1.3507,1.352,1.3529,1.3536,1.3556,1.3565,1.3465,1.3465,1.3466,0,1.3559,1.3568,1.3532,1.3544,1.3539,1.3491,1.3511,1.3502,1.3484,1.3482,1.3459,1.3459,1.3444,1.3464,1.348,1.3479,1.3481,1.3462,1.3531,1.3537,1.3544,1.3563,1.3571,1.3469,1.3469,1.3468,1.3468,0,1.363,1.3638,1.3657,1.364,1.3638,1.3655,1.3619,1.3622,1.3596,1.3575,1.3588,1.3569,1.3561,1.3564,1.354,1.358,1.3567,1.3539,1.3497,1.3558,1.3575,1.3583,1.3475,1.3473,1.3472,1.3471,0,0,1.3748,1.371,1.3717,1.3707,1.3683,1.3687,1.3701,1.3692,1.3693,1.3683,1.3691,1.3694,1.3666,1.366,1.3634,1.3646,1.3696,1.3615,1.3614,1.3627,1.3733,1.3752,1.3761,1.3675,1.3677,1.3678,1.3733,0,1.3815,1.3835,1.3802,1.3829,1.3832,1.3786,1.3797,1.3783,1.3763,1.3762,1.374,1.3741,1.3707,1.3702,1.3712,1.3688,1.3716,1.3684,1.3679,1.368,1.3681,1.3771,1.3791,1.3845,1.374,1.3741,1.3742,0,1.3895,1.3887,1.3914,1.3885,1.3885,1.3896,1.3884,1.3885,1.3867,1.3851,1.3843,1.3812,1.3821,1.3784,1.3794,1.3773,1.3769,1.3757,1.3758,1.3753,1.3712,1.3765,1.3861,1.3868,1.3753,1.3752,1.3752,0,1.3972,1.3969,1.3983,1.3977,1.3945,1.3953,1.394,1.3919,1.3916,1.3906,1.3902,1.3894,1.3888,1.3882,1.3848,1.3825,1.3861,1.3822,1.3845,1.3846,1.3852,1.3852,1.3946,1.3857,1.3857,1.3857,1.3857,0,1.4048,1.4065,1.4017,1.4026,1.4043,1.4005,1.4023,1.4005,1.3987,1.399,1.3951,1.3955,1.3912,1.3911,1.3885,1.3895,1.3894,1.3879,1.3871,1.388,1.3882,1.3875,1.3869,1.3859,1.3858,1.3858,1.3858,0,1.4136,1.4105,1.4117,1.4086,1.4078,1.4092,1.4064,1.4069,1.4047,1.4051,1.405,1.4014,1.401,1.3977,1.3966,1.3948,1.3966,1.3953,1.3972,1.3966,1.399,1.3986,1.408,1.4088,1.3998,1.3999,1.4,0,1.4184,1.4196,1.4165,1.4164,1.4153,1.4152,1.4148,1.4111,1.4107,1.4086,1.4094,1.4087,1.4078,1.4073,1.4046,1.4036,1.402,1.4053,1.4018,1.4026,1.4015,1.4014,1.4013,1.406,1.4061,1.4062,1.4063,0,1.4271,1.4255,1.425,1.424,1.4235,1.4225,1.4213,1.4214,1.4173,1.4171,1.4166,1.4159,1.4147,1.4139,1.4124,1.4109,1.4078,1.4074,1.4078,1.4086,1.4095,1.4086,1.3988,1.4072,1.4071,1.407,1.407,1.4069,1.4338,1.4345,1.4323,1.4319,1.4305,1.4294,1.4296,1.4274,1.4269,1.4256,1.4234,1.4232,1.421,1.4187,1.4175,1.4171,1.4153,1.416,1.4161,1.4163,1.4166,1.4098,1.4169,1.4168,1.4168,1.4168,1.4168,0,1.4419,1.4403,1.4399,1.4382,1.4378,1.435,1.4334,1.4332,1.433,1.4313,1.4306,1.4298,1.429,1.4261,1.4249,1.4251,1.4236,1.4249,1.4247,1.4243,1.4185,1.418,1.4261,1.4261,1.4261,1.4261,1.4261,1.4261,1.4461,1.447,1.4451,1.4452,1.4436,1.4432,1.4425,1.4414,1.44,1.4393,1.4386,1.4367,1.4345,1.4331,1.4321,1.4313,1.4308,1.4325,1.4311,1.4257,1.4248,1.4239,1.4234,1.4325,1.4325,1.4369,1.437,1.437]}]]